Regional Weather Roundup
Issued by NWS

Home | Current Version | Previous Version | Text Only | Print | Product List | Glossary Off
Versions: 1 2 3 4 5 6 7 8 9 10 11 12 13 14 15 16 17 18 19 20 21 22 23 24 25 26 27 28 29 30 31 32 33 34 35 36 37 38 39 40 41 42 43 44 45 46 47 48 49 50

000
ASUS43 KMPX 270810
RWRMN
WEATHER ROUNDUP FOR MINNESOTA
NATIONAL WEATHER SERVICE TWIN CITIES/CHANHASSEN MN
200 AM CST TUE JAN 27 2015


NOTE: "FAIR" INDICATES FEW OR NO CLOUDS BELOW 12,000 FEET WITH NO
SIGNIFICANT WEATHER AND/OR OBSTRUCTIONS TO VISIBILITY. N/A MEANS
CURRENT SKY AND/OR WEATHER CONDITIONS ARE NOT AVAILABLE.

MNZ060>063-068>070-270900-
   Twin Cities Metro

CITY           SKY/WX    TMP DP  RH WIND       PRES   REMARKS
TWIN CITIES    CLOUDY    34  26  72 N9        30.03R WCI  27
ST PAUL        CLOUDY    35  27  72 N5        30.04R WCI  31
CRYSTAL        CLOUDY    35  26  69 N9        30.03R WCI  28
BLAINE         CLOUDY    36  28  75 N8        30.03R
LAKEVILLE      CLOUDY    32  28  86 CALM      30.02R
EDEN PRAIRIE   CLOUDY    35  27  72 N7        30.02R WCI  29
SOUTH ST PAUL  CLOUDY    36  27  71 N7        30.03R
LAKE ELMO      CLOUDY    34  28  80 N5        30.03R WCI  30
$$
MNZ001>005-007-008-013>017-022>024-027-028-270900-
   Northwest Minnesota

CITY           SKY/WX    TMP DP  RH WIND       PRES   REMARKS
BEMIDJI        CLOUDY    25  24  96 W6        30.02S WCI  18
HALLOCK        FOG       25  23  93 SE6       30.03S VSB 3/4 WCI  18
ROSEAU         HAZE      23  18  80 CALM      30.03S VSB 1/2
WARROAD        CLOUDY    23  19  86 SW6       30.03S FOG     WCI  16
THIEF RVR FALL CLOUDY    25  25 100 CALM      30.03S
CROOKSTON      CLOUDY    27  27 100 CALM      30.05S FOG
FOSSTON        CLOUDY    25  23  93 CALM      30.04R
DETROIT LAKES  CLOUDY    28  27  93 NW3       30.04R FOG
MOORHEAD       CLOUDY    28  28 100 E5        30.05F WCI  23
PARK RAPIDS    CLOUDY    28  25  88 NW5       30.02R WCI  23
MAHNOMEN       CLOUDY    26  25  96 CALM      30.03R
$$
MNZ006-009>011-018-025>026-270900-
   North Central Minnesota

CITY           SKY/WX    TMP DP  RH WIND       PRES   REMARKS
BAUDETTE       CLOUDY    23  20  88 W3        30.02R
FLAG ISLAND    CLOUDY    21  19  93 SW6       30.02R WCI  14
INTL FALLS     CLOUDY    24  20  84 NW5       30.02R WCI  18
WASKISH        CLOUDY    27  25  93 CALM      30.03R
BIG FORK       CLOUDY    27  21  80 CALM      30.02R
LONGVILLE      CLOUDY    28  25  86 NW6       30.02R WCI  22
GRAND RAPIDS   CLOUDY    27  21  80 NW7       30.02R WCI  19
CRANE LAKE     CLOUDY    23  21  93 CALM      30.03R
ORR            CLOUDY    25  19  80 W5        29.99R WCI  19
COOK           CLOUDY    25  21  86 CALM      30.01S
WALKER         CLOUDY    28  24  87 W3        30.03R
$$
MNZ012-019>021-037-270900-
   Northeast Minnesota

CITY           SKY/WX    TMP DP  RH WIND       PRES   REMARKS
DULUTH         CLOUDY    27  21  78 N6        30.01R WCI  20
ELY            CLOUDY    21  19  93 CALM      30.01R
HIBBING        CLOUDY    27  21  78 N5        30.01R WCI  22
EVELETH        CLOUDY    27  23  86 NW6       30.02R WCI  20
DULUTH HARBOR  CLOUDY    30  25  80 NW6       30.05R WCI  24
TWO HARBORS    CLOUDY    28  23  80 CALM      30.01R
SILVER BAY     CLOUDY    27  21  80 CALM      30.01R
GRAND MARAIS     N/A     23  18  81 N8        30.04R WCI  14
G MARAIS ARPRT CLOUDY    16  10  79 CALM      29.98R
$$
MNZ029>031-032-039>041-046>048-054>057-064-270900-
   West Central Minnesota

CITY           SKY/WX    TMP DP  RH WIND       PRES   REMARKS
FERGUS FALLS   CLOUDY    27  27 100 E5        30.07S WCI  21
WHEATON        CLEAR     25  25 100 CALM      30.08R
MORRIS         CLOUDY    28  28 100 N5        30.04R WCI  23
ALEXANDRIA     CLOUDY    28  26  92 N6        30.03S WCI  22
ELBOW LAKE     CLOUDY    27  27  97 E5        30.04R WCI  22
WADENA         CLOUDY    27  25  93 CALM      30.03R
GLENWOOD       CLOUDY    28  27  93 CALM      30.04R
APPLETON       FOG       28  27  93 W3        30.05S VSB 1/2
BENSON         CLOUDY    30  27  86 CALM      30.05R
ORTONVILLE     FAIR      28  27  93 NW3       30.05  FOG
MADISON        CLOUDY    34  32  93 NW5       30.06R FOG     WCI  30
WILLMAR        CLOUDY    32  28  86 N5        30.06R WCI  27
$$
MNZ033>034-036-042>043-049>051-058-059-270900-
   Central Minnesota

CITY           SKY/WX    TMP DP  RH WIND       PRES   REMARKS
ST CLOUD       CLOUDY    32  26  78 NW7       30.03R WCI  26
SAUK CENTRE    CLOUDY    30  27  88 N5        30.03S WCI  25
PAYNESVILLE    CLOUDY    29  27  91 NW6       30.04R WCI  23
AITKIN         CLOUDY    32  25  74 NW3       30.02R
PINE RIVER     CLOUDY    28  25  86 N6        30.06R WCI  22
BRAINERD       CLOUDY    30  25  81 N5        30.03R WCI  25
STAPLES        CLOUDY    28  25  86 CALM      30.03R
LONG PRAIRIE   CLOUDY    30  27  86 N5        30.03R WCI  25
LITTLE FALLS   CLOUDY    32  27  80 CALM      30.04R
LITCHFIELD     CLOUDY    34  30  86 NW5       30.04R WCI  30
BUFFALO        CLOUDY    34  27  76 N8        30.04R WCI  27
MAPLE LAKE     CLOUDY    34  29  82 N7        30.04R WCI  28
$$
MNZ037-044-045-052-053-270900-
   East Central Minnesota

CITY           SKY/WX    TMP DP  RH WIND       PRES   REMARKS
PRINCETON      CLOUDY    34  27  75 N6        30.04R WCI  29
MORA           CLOUDY    32  25  74 NW6       30.04R WCI  26
CAMBRIDGE      CLOUDY    36  25  64 CALM      30.01R
RUSH CITY      CLOUDY    32  26  79 N5        30.04R WCI  27
MOOSE LAKE     CLOUDY    28  23  80 NE3       30.01S
HINCKLEY       CLOUDY    32  27  80 NE7       30.03R WCI  26
CLOQUET        CLOUDY    27  21  80 N8        30.02R WCI  18
MCGREGOR       CLOUDY    30  27  86 CALM      30.03R
$$
MNZ071>073-080-081-089-090-097-098-270900-
   Southwest Minnesota

CITY           SKY/WX    TMP DP  RH WIND       PRES   REMARKS
MONTEVIDEO     CLEAR     28  28 100 NW3       30.06S
GRANITE FALLS  PTCLDY    29  28  96 CALM      30.07R
CANBY          CLOUDY    31  31  98 CALM      30.06S
MARSHALL       MOCLDY    30  27  86 N8        30.07R WCI  23
REDWOOD FALLS  CLOUDY    32  28  85 N3        30.05R
OLIVIA         CLOUDY    30  28  93 NE6       30.04S WCI  24
PIPESTONE      CLEAR     28  28 100 NW3       30.03S
WINDOM         CLEAR     30  28  93 CALM      30.04R
WORTHINGTON    CLOUDY    32  30  93 N8        30.05R WCI  25
JACKSON        MOCLDY    32  30  93 NW7       30.04R WCI  26
TRACY          CLEAR     31  30  97 NW5       30.05R WCI  26
SLAYTON        CLOUDY    32  31  97 CALM      30.04S FOG
$$
MNZ065>067-074>077-082>085-091>093-270900-
   South Central Minnesota

CITY           SKY/WX    TMP DP  RH WIND       PRES   REMARKS
MANKATO        PTCLDY    32  27  80 NW6       30.03R WCI  26
NEW ULM        MOCLDY    30  28  93 NW7       30.05R WCI  23
ST JAMES       CLEAR     30  28  93 NW6       30.06R WCI  24
FAIRMONT       CLEAR     30  27  86 NW8       30.03R WCI  23
GLENCOE        CLOUDY    35  31  85 NW7       30.03R WCI  29
FARIBAULT      CLOUDY    34  30  86 NW5       30.02R WCI  30
OWATONNA       CLOUDY    34  30  86 NW5       30.01R WCI  30
WASECA         CLOUDY    32  30  93 NW3       30.04R
ALBERT LEA     CLOUDY    34  30  86 NW3       30.01R
$$
MNZ078>079-086>088-094>096-270900-
   Southeast Minnesota

CITY           SKY/WX    TMP DP  RH WIND       PRES   REMARKS
ROCHESTER      CLOUDY    34  30  85 NW10      29.99R WCI  26
RED WING       CLOUDY    36  27  69 N7        30.02R
STANTON        CLOUDY    35  31  85 N5        30.00R WCI  31
DODGE CENTER   CLOUDY    34  30  86 N7        29.99R WCI  28
WINONA         CLOUDY    34  30  86 NW5       30.02R WCI  30
AUSTIN         CLOUDY    34  30  86 NW8       30.00R WCI  27
PRESTON        CLOUDY    34  28  80 N9        29.98R WCI  26
$$
ABBREVIATIONS USED IN REMARKS
   TC - TEMPERATURES IN CELSIUS
  WCI - WIND CHILL INDEX
   HX - HEAT INDEX
  VSB - VISIBILITY
$$



USA.gov is the U.S. government's official web portal to all federal, state and local government web resources and services.